GW3448 Weather Reports


time (UTC)temp
C
wind
direction
speed
KPH
gust
KPH
rain 1hr
cm
rain 24hr
cm
rain mn
cm
humidity
%
barometer
mb
20260506200029 28 198 11.3 19.3 0.00 0.00 0.00 38 1011.7
20260506200009 28 157 9.7 19.3 0.00 0.00 0.00 37 1011.7
20260506195954 28 148 6.4 19.3 0.00 0.00 0.00 39 1011.8
20260506195637 28 179 8.0 14.5 0.00 0.00 0.00 38 1011.8
20260506195528 28 287 6.4 14.5 0.00 0.00 0.00 39 1011.7
20260506195427 28 229 4.8 14.5 0.00 0.00 0.00 40 1011.7
20260506195329 28 342 4.8 16.1 0.00 0.00 0.00 40 1011.7
20260506195226 28 151 4.8 16.1 0.00 0.00 0.00 40 1011.8
20260506195137 27 188 3.2 16.1 0.00 0.00 0.00 39 1011.8
20260506195024 27 225 4.8 16.1 0.00 0.00 0.00 39 1011.7
20260506194928 27 238 6.4 16.1 0.00 0.00 0.00 39 1011.7
20260506194907 27 191 8.0 16.1 0.00 0.00 0.00 38 1011.8
20260506194856 27 211 6.4 16.1 0.00 0.00 0.00 39 1011.8
20260506194525 27 221 9.7 16.1 0.00 0.00 0.00 39 1011.8
20260506194422 27 155 8.0 16.1 0.00 0.00 0.00 39 1011.8
20260506194324 27 177 4.8 11.3 0.00 0.00 0.00 39 1011.9
20260506194220 27 269 4.8 11.3 0.00 0.00 0.00 39 1011.8
20260506194123 27 248 8.0 11.3 0.00 0.00 0.00 38 1011.8
20260506193859 27 179 8.0 17.7 0.00 0.00 0.00 38 1011.9
20260506193758 27 170 6.4 17.7 0.00 0.00 0.00 39 1011.9
20260506193657 27 80 6.4 14.5 0.00 0.00 0.00 39 1011.9
20260506193557 27 173 4.8 14.5 0.00 0.00 0.00 39 1011.9
20260506193538 27 197 3.2 14.5 0.00 0.00 0.00 39 1011.9
20260506193527 27 219 6.4 14.5 0.00 0.00 0.00 40 1011.9
20260506193158 27 164 4.8 22.5 0.00 0.00 0.00 41 1011.9
20260506193053 27 159 4.8 22.5 0.00 0.00 0.00 41 1012.0
20260506192955 27 163 6.4 22.5 0.00 0.00 0.00 42 1012.0
20260506192852 27 208 9.7 22.5 0.00 0.00 0.00 41 1012.0
20260506192754 26 161 9.7 22.5 0.00 0.00 0.00 41 1012.0
20260506192651 26 182 8.0 22.5 0.00 0.00 0.00 42 1012.0
20260506192550 26 175 11.3 22.5 0.00 0.00 0.00 42 1012.0
20260506192450 26 170 11.3 22.5 0.00 0.00 0.00 41 1012.0
20260506192349 27 273 4.8 22.5 0.00 0.00 0.00 41 1012.0
20260506192306 26 254 3.2 20.9 0.00 0.00 0.00 42 1012.0
20260506192247 26 226 4.8 20.9 0.00 0.00 0.00 42 1012.0
20260506192235 26 238 6.4 20.9 0.00 0.00 0.00 43 1012.0
20260506191848 26 169 6.4 20.9 0.00 0.00 0.00 41 1012.0
20260506191745 26 201 4.8 17.7 0.00 0.00 0.00 42 1012.0
20260506191644 26 141 6.4 17.7 0.00 0.00 0.00 43 1011.9
20260506191544 26 195 8.0 17.7 0.00 0.00 0.00 43 1012.0
20260506191447 26 212 11.3 29.0 0.00 0.00 0.00 43 1011.9
20260506191348 26 188 9.7 29.0 0.00 0.00 0.00 44 1011.9
20260506191306 26 153 6.4 29.0 0.00 0.00 0.00 44 1012.0
20260506191252 26 247 8.0 29.0 0.00 0.00 0.00 43 1011.9
20260506190943 26 227 9.7 29.0 0.00 0.00 0.00 43 1012.0
20260506190927 26 157 6.4 29.0 0.00 0.00 0.00 43 1012.0
20260506190905 25 173 9.7 29.0 0.00 0.00 0.00 45 1012.0
20260506190628 26 288 8.0 29.0 0.00 0.00 0.00 46 1012.1
20260506190616 26 262 9.7 24.1 0.00 0.00 0.00 46 1012.1
20260506190605 25 167 6.4 24.1 0.00 0.00 0.00 46 1012.1
20260506190539 25 198 8.0 24.1 0.00 0.00 0.00 45 1012.1
20260506190309 25 180 8.0 24.1 0.00 0.00 0.00 44 1012.1
20260506190258 25 194 8.0 24.1 0.00 0.00 0.00 44 1012.1
20260506190246 25 236 9.7 24.1 0.00 0.00 0.00 45 1012.1
20260506185519 25 164 6.4 24.1 0.00 0.00 0.00 45 1012.1
20260506185508 25 197 6.4 24.1 0.00 0.00 0.00 46 1012.1
20260506185126 25 184 8.0 24.1 0.00 0.00 0.00 46 1012.1
20260506185026 25 159 6.4 24.1 0.00 0.00 0.00 47 1012.1
20260506184926 25 169 4.8 24.1 0.00 0.00 0.00 48 1012.0
20260506184831 25 249 6.4 24.1 0.00 0.00 0.00 48 1012.0
20260506184725 25 269 9.7 24.1 0.00 0.00 0.00 47 1012.0
20260506184623 25 265 9.7 24.1 0.00 0.00 0.00 47 1012.1
20260506184524 25 192 6.4 17.7 0.00 0.00 0.00 47 1012.1
20260506184423 25 171 6.4 17.7 0.00 0.00 0.00 47 1012.1
20260506184406 25 220 6.4 17.7 0.00 0.00 0.00 48 1012.1
20260506184343 25 229 6.4 17.7 0.00 0.00 0.00 47 1012.1
20260506184020 25 199 8.0 17.7 0.00 0.00 0.00 47 1012.1
20260506183921 25 242 9.7 17.7 0.00 0.00 0.00 47 1012.1
20260506183829 25 228 9.7 17.7 0.00 0.00 0.00 46 1012.2
20260506183718 25 171 8.0 29.0 0.00 0.00 0.00 46 1012.1
20260506183617 25 167 6.4 29.0 0.00 0.00 0.00 47 1012.2
20260506183517 25 224 8.0 29.0 0.00 0.00 0.00 47 1012.1
20260506183415 25 217 8.0 29.0 0.00 0.00 0.00 46 1012.1
20260506183324 25 284 8.0 29.0 0.00 0.00 0.00 47 1012.2
20260506183215 25 200 8.0 29.0 0.00 0.00 0.00 47 1012.2
20260506183145 25 213 8.0 29.0 0.00 0.00 0.00 48 1012.1
20260506183133 25 238 9.7 29.0 0.00 0.00 0.00 47 1012.1
20260506182811 25 305 12.9 29.0 0.00 0.00 0.00 47 1012.2
20260506182710 25 229 8.0 17.7 0.00 0.00 0.00 47 1012.3
20260506182610 25 158 6.4 17.7 0.00 0.00 0.00 49 1012.3
20260506182553 25 145 9.7 17.7 0.00 0.00 0.00 48 1012.4
20260506182540 25 263 9.7 17.7 0.00 0.00 0.00 47 1012.3
20260506182211 25 194 8.0 22.5 0.00 0.00 0.00 48 1012.3
20260506182107 25 257 8.0 22.5 0.00 0.00 0.00 48 1012.3
20260506182006 25 198 8.0 22.5 0.00 0.00 0.00 47 1012.4
20260506181907 25 173 8.0 22.5 0.00 0.00 0.00 47 1012.3
20260506181802 25 250 6.4 22.5 0.00 0.00 0.00 48 1012.4
20260506181705 24 222 6.4 22.5 0.00 0.00 0.00 50 1012.4
20260506181601 24 106 9.7 22.5 0.00 0.00 0.00 50 1012.4
20260506181503 24 197 11.3 22.5 0.00 0.00 0.00 50 1012.4
20260506181403 24 171 8.0 22.5 0.00 0.00 0.00 50 1012.4
20260506181336 24 186 9.7 19.3 0.00 0.00 0.00 50 1012.4
20260506181323 24 232 9.7 19.3 0.00 0.00 0.00 50 1012.4
20260506180959 24 161 9.7 17.7 0.00 0.00 0.00 50 1012.4
20260506180859 24 192 8.0 17.7 0.00 0.00 0.00 50 1012.4
20260506180758 24 249 8.0 17.7 0.00 0.00 0.00 50 1012.5
20260506180658 24 196 9.7 17.7 0.00 0.00 0.00 50 1012.4
20260506180625 24 178 8.0 17.7 0.00 0.00 0.00 50 1012.4
20260506180612 24 218 6.4 20.9 0.00 0.00 0.00 51 1012.4
20260506180601 24 153 8.0 22.5 0.00 0.00 0.00 51 1012.4
20260506180314 24 232 8.0 22.5 0.00 0.00 0.00 50 1012.5
20260506175953 24 163 8.0 22.5 0.00 0.00 0.00 51 1012.5
20260506175852 23 233 8.0 22.5 0.00 0.00 0.00 51 1012.5
20260506175751 23 240 8.0 22.5 0.00 0.00 0.00 52 1012.5
20260506175723 23 149 11.3 22.5 0.00 0.00 0.00 52 1012.4
20260506175712 23 292 11.3 22.5 0.00 0.00 0.00 51 1012.4
20260506175348 23 236 6.4 19.3 0.00 0.00 0.00 51 1012.4
20260506175248 23 163 6.4 19.3 0.00 0.00 0.00 53 1012.5
20260506175149 23 242 6.4 19.3 0.00 0.00 0.00 52 1012.4
20260506175046 23 238 8.0 19.3 0.00 0.00 0.00 52 1012.5
20260506174946 23 191 9.7 19.3 0.00 0.00 0.00 52 1012.5
20260506174845 23 228 9.7 19.3 0.00 0.00 0.00 52 1012.4
20260506174744 23 194 9.7 19.3 0.00 0.00 0.00 52 1012.5
20260506174643 23 250 8.0 19.3 0.00 0.00 0.00 52 1012.5
20260506174613 23 206 4.8 22.5 0.00 0.00 0.00 52 1012.5
20260506174601 23 158 4.8 22.5 0.00 0.00 0.00 52 1012.4
20260506174241 23 202 8.0 32.2 0.00 0.00 0.00 53 1012.6
20260506174141 23 159 8.0 32.2 0.00 0.00 0.00 53 1012.5
20260506174040 23 210 8.0 32.2 0.00 0.00 0.00 55 1012.5
20260506173939 23 188 8.0 32.2 0.00 0.00 0.00 55 1012.5
20260506173839 23 178 9.7 32.2 0.00 0.00 0.00 55 1012.5
20260506173739 23 288 14.5 32.2 0.00 0.00 0.00 53 1012.6
20260506173636 23 196 16.1 32.2 0.00 0.00 0.00 53 1012.6
20260506173536 23 193 14.5 32.2 0.00 0.00 0.00 53 1012.6
20260506173436 23 145 9.7 32.2 0.00 0.00 0.00 52 1012.7
20260506173335 23 235 9.7 19.3 0.00 0.00 0.00 52 1012.6
20260506173234 23 204 11.3 19.3 0.00 0.00 0.00 52 1012.6
20260506173147 23 167 8.0 19.3 0.00 0.00 0.00 53 1012.6
20260506173131 23 272 4.8 19.3 0.00 0.00 0.00 54 1012.6
20260506173119 23 243 6.4 19.3 0.00 0.00 0.00 55 1012.7
20260506173107 23 177 6.4 19.3 0.00 0.00 0.00 54 1012.6
20260506172824 23 215 8.0 19.3 0.00 0.00 0.00 53 1012.7
20260506172548 23 193 8.0 19.3 0.00 0.00 0.00 54 1012.8
20260506172229 23 219 6.4 17.7 0.00 0.00 0.00 54 1012.7
20260506172131 22 242 4.8 17.7 0.00 0.00 0.00 55 1012.8
20260506172029 22 167 8.0 17.7 0.00 0.00 0.00 55 1012.8
20260506171929 22 250 8.0 17.7 0.00 0.00 0.00 54 1012.8
20260506171829 22 150 4.8 17.7 0.00 0.00 0.00 55 1012.8
20260506171802 22 233 4.8 17.7 0.00 0.00 0.00 55 1012.8
20260506171749 22 180 4.8 17.7 0.00 0.00 0.00 55 1012.8
20260506171429 22 205 8.0 20.9 0.00 0.00 0.00 55 1012.8
20260506171329 22 142 8.0 20.9 0.00 0.00 0.00 55 1012.8
20260506171228 22 186 4.8 20.9 0.00 0.00 0.00 56 1012.8
20260506171129 22 196 4.8 20.9 0.00 0.00 0.00 57 1012.8
20260506171029 22 278 6.4 20.9 0.00 0.00 0.00 57 1012.8
20260506170929 22 152 6.4 20.9 0.00 0.00 0.00 56 1012.8
20260506170830 22 227 8.0 20.9 0.00 0.00 0.00 56 1012.9
20260506170729 22 196 11.3 20.9 0.00 0.00 0.00 56 1012.8
20260506170631 22 161 9.7 20.9 0.00 0.00 0.00 57 1012.9
20260506170528 22 152 9.7 17.7 0.00 0.00 0.00 57 1012.8
20260506170432 22 214 8.0 17.7 0.00 0.00 0.00 57 1012.8
20260506170326 22 142 9.7 22.5 0.00 0.00 0.00 57 1012.8
20260506170230 22 225 8.0 22.5 0.00 0.00 0.00 57 1012.8
20260506170157 22 182 6.4 22.5 0.00 0.00 0.00 58 1012.9
20260506170142 21 207 6.4 22.5 0.00 0.00 0.00 58 1012.9
20260506165823 21 229 4.8 22.5 0.00 0.00 0.00 58 1012.9
20260506165716 21 184 6.4 22.5 0.00 0.00 0.00 58 1012.9
20260506165615 21 222 8.0 22.5 0.00 0.00 0.00 58 1012.9
20260506165514 21 226 9.7 22.5 0.00 0.00 0.00 57 1012.9
20260506165414 21 146 9.7 22.5 0.00 0.00 0.00 58 1012.9
20260506165313 21 141 8.0 22.5 0.00 0.00 0.00 58 1012.9
20260506165213 21 169 9.7 22.5 0.00 0.00 0.00 58 1012.9
20260506165112 21 155 8.0 22.5 0.00 0.00 0.00 58 1012.9
20260506165011 21 186 9.7 22.5 0.00 0.00 0.00 58 1012.9
20260506164911 21 232 9.7 22.5 0.00 0.00 0.00 58 1012.8
20260506164810 21 196 9.7 20.9 0.00 0.00 0.00 59 1012.9
20260506164711 21 211 6.4 20.9 0.00 0.00 0.00 60 1012.9
20260506164608 21 140 4.8 20.9 0.00 0.00 0.00 60 1012.9
20260506164538 21 230 6.4 20.9 0.00 0.00 0.00 60 1012.9
20260506164525 21 227 6.4 20.9 0.00 0.00 0.00 59 1013.0
20260506164205 21 285 11.3 20.9 0.00 0.00 0.00 59 1013.0
20260506164105 21 180 8.0 20.9 0.00 0.00 0.00 59 1013.0
20260506164035 21 195 8.0 19.3 0.00 0.00 0.00 60 1013.0
20260506164023 21 196 8.0 19.3 0.00 0.00 0.00 60 1013.0
20260506163706 20 161 8.0 19.3 0.00 0.00 0.00 60 1013.1
20260506163602 20 123 9.7 19.3 0.00 0.00 0.00 60 1013.1
20260506163507 20 205 8.0 19.3 0.00 0.00 0.00 60 1013.0
20260506163446 20 215 6.4 19.3 0.00 0.00 0.00 61 1013.0
20260506163435 20 188 6.4 16.1 0.00 0.00 0.00 61 1013.1
20260506163104 20 196 6.4 16.1 0.00 0.00 0.00 61 1013.0
20260506163001 20 200 6.4 20.9 0.00 0.00 0.00 61 1013.1
20260506162907 20 236 6.4 20.9 0.00 0.00 0.00 61 1013.1
20260506162801 20 186 6.4 20.9 0.00 0.00 0.00 61 1013.1
20260506162705 20 195 6.4 20.9 0.00 0.00 0.00 61 1013.1
20260506162601 20 215 6.4 24.1 0.00 0.00 0.00 61 1013.0
20260506162506 20 225 8.0 24.1 0.00 0.00 0.00 62 1013.1
20260506162401 20 249 8.0 24.1 0.00 0.00 0.00 62 1013.1
20260506162306 20 197 8.0 24.1 0.00 0.00 0.00 62 1013.1
20260506162202 20 185 6.4 24.1 0.00 0.00 0.00 62 1013.0
20260506162107 20 200 3.2 24.1 0.00 0.00 0.00 62 1013.0
20260506162002 20 257 4.8 24.1 0.00 0.00 0.00 64 1013.0
20260506161907 20 259 9.7 24.1 0.00 0.00 0.00 63 1013.0
20260506161802 20 198 11.3 24.1 0.00 0.00 0.00 63 1013.0
20260506161706 20 143 9.7 24.1 0.00 0.00 0.00 63 1013.0
20260506161601 20 208 9.7 20.9 0.00 0.00 0.00 63 1013.0
20260506161504 20 202 8.0 20.9 0.00 0.00 0.00 63 1013.0
20260506161400 20 273 8.0 20.9 0.00 0.00 0.00 63 1013.0
20260506161306 20 211 8.0 20.9 0.00 0.00 0.00 63 1012.9
20260506161203 20 165 9.7 20.9 0.00 0.00 0.00 63 1013.0
20260506161104 20 228 9.7 20.9 0.00 0.00 0.00 63 1013.0
20260506161001 20 182 9.7 20.9 0.00 0.00 0.00 63 1013.1
20260506160905 20 163 8.0 19.3 0.00 0.00 0.00 62 1013.0
20260506160834 20 225 6.4 19.3 0.00 0.00 0.00 63 1013.0
20260506160807 20 234 6.4 19.3 0.00 0.00 0.00 63 1013.0
20260506160755 20 265 8.0 19.3 0.00 0.00 0.00 63 1013.0
20260506160523 20 143 8.0 19.3 0.00 0.00 0.00 63 1013.0
20260506160200 20 184 6.4 20.9 0.00 0.00 0.00 63 1013.0
20260506160059 20 199 4.8 24.1 0.00 0.00 0.00 63 1013.0
20260506155957 20 269 6.4 24.1 0.00 0.00 0.00 63 1012.9
20260506155858 19 184 4.8 24.1 0.00 0.00 0.00 64 1012.9
20260506155756 19 173 3.2 24.1 0.00 0.00 0.00 64 1012.9
20260506155656 19 163 3.2 24.1 0.00 0.00 0.00 64 1012.9
20260506155555 19 180 6.4 24.1 0.00 0.00 0.00 64 1012.9
20260506155457 19 187 8.0 24.1 0.00 0.00 0.00 64 1013.0
20260506155439 19 182 8.0 24.1 0.00 0.00 0.00 64 1012.9
20260506155426 19 174 8.0 24.1 0.00 0.00 0.00 64 1012.9
20260506155053 19 207 6.4 19.3 0.00 0.00 0.00 64 1013.0
20260506155012 19 181 4.8 19.3 0.00 0.00 0.00 64 1013.0
20260506154852 19 143 8.0 16.1 0.00 0.00 0.00 64 1013.0
20260506154749 19 186 8.0 16.1 0.00 0.00 0.00 63 1013.0
20260506154651 19 178 8.0 16.1 0.00 0.00 0.00 63 1013.0
20260506154618 19 277 6.4 14.5 0.00 0.00 0.00 63 1013.0
20260506154607 19 196 6.4 14.5 0.00 0.00 0.00 64 1013.0
20260506154249 19 204 6.4 17.7 0.00 0.00 0.00 63 1013.0
20260506154145 19 152 3.2 17.7 0.00 0.00 0.00 64 1013.0
20260506154046 19 217 3.2 17.7 0.00 0.00 0.00 64 1013.0
20260506154020 19 144 3.2 17.7 0.00 0.00 0.00 64 1012.9
20260506154009 18 196 6.4 17.7 0.00 0.00 0.00 64 1013.0
20260506153715 18 164 8.0 17.7 0.00 0.00 0.00 64 1012.9
20260506153703 18 229 8.0 17.7 0.00 0.00 0.00 64 1012.9
20260506153353 18 216 6.4 17.7 0.00 0.00 0.00 64 1012.9
20260506153338 18 205 3.2 17.7 0.00 0.00 0.00 64 1012.9
20260506153310 18 239 3.2 17.7 0.00 0.00 0.00 65 1012.8
20260506153259 18 256 4.8 17.7 0.00 0.00 0.00 65 1012.9
20260506153027 18 160 8.0 17.7 0.00 0.00 0.00 65 1012.9
20260506152738 18 195 6.4 14.5 0.00 0.00 0.00 64 1012.9
20260506152726 18 153 8.0 14.5 0.00 0.00 0.00 65 1012.9
20260506152713 18 243 8.0 16.1 0.00 0.00 0.00 65 1012.9
20260506152132 18 204 6.4 16.1 0.00 0.00 0.00 65 1012.8
20260506152034 18 168 4.8 16.1 0.00 0.00 0.00 65 1012.8
20260506151956 18 199 4.8 16.1 0.00 0.00 0.00 65 1012.8
20260506151831 18 121 6.4 17.7 0.00 0.00 0.00 65 1012.9
20260506151729 18 179 6.4 17.7 0.00 0.00 0.00 65 1012.9
20260506151630 18 189 6.4 20.9 0.00 0.00 0.00 65 1012.9
20260506151529 18 195 8.0 20.9 0.00 0.00 0.00 65 1012.9
20260506151431 18 188 6.4 20.9 0.00 0.00 0.00 66 1012.9
20260506151330 18 134 6.4 20.9 0.00 0.00 0.00 66 1012.9
20260506151231 18 202 6.4 20.9 0.00 0.00 0.00 66 1012.9
20260506151129 18 248 6.4 20.9 0.00 0.00 0.00 66 1012.9
20260506151029 18 190 9.7 20.9 0.00 0.00 0.00 66 1013.0
20260506150930 17 190 9.7 20.9 0.00 0.00 0.00 66 1013.0
20260506150830 17 172 9.7 20.9 0.00 0.00 0.00 66 1013.0
20260506150729 18 145 6.4 20.9 0.00 0.00 0.00 66 1013.0
20260506150632 17 199 6.4 19.3 0.00 0.00 0.00 66 1012.9
20260506150558 17 241 8.0 19.3 0.00 0.00 0.00 67 1013.0
20260506150548 17 188 8.0 19.3 0.00 0.00 0.00 67 1013.0
20260506150535 17 190 8.0 19.3 0.00 0.00 0.00 67 1012.9
20260506150249 17 153 6.4 19.3 0.00 0.00 0.00 67 1012.9
20260506145929 17 211 8.0 19.3 0.00 0.00 0.00 66 1012.9
20260506145830 17 179 6.4 19.3 0.00 0.00 0.00 67 1012.9
20260506145729 17 201 8.0 19.3 0.00 0.00 0.00 67 1012.9
20260506145630 17 200 6.4 19.3 0.00 0.00 0.00 66 1012.9
20260506145530 17 265 9.7 19.3 0.00 0.00 0.00 66 1012.8
20260506145500 17 200 11.3 19.3 0.00 0.00 0.00 66 1012.8
20260506145449 17 174 8.0 19.3 0.00 0.00 0.00 66 1012.8
20260506145129 17 209 6.4 19.3 0.00 0.00 0.00 66 1012.9
20260506145031 17 175 6.4 19.3 0.00 0.00 0.00 66 1012.8
20260506144948 17 175 4.8 14.5 0.00 0.00 0.00 66 1012.9
20260506144830 17 186 6.4 14.5 0.00 0.00 0.00 66 1012.9
20260506144814 17 279 6.4 14.5 0.00 0.00 0.00 66 1013.0
20260506144751 17 241 4.8 14.5 0.00 0.00 0.00 66 1012.9
20260506144430 17 246 3.2 9.7 0.00 0.00 0.00 66 1012.9
20260506144329 17 236 4.8 9.7 0.00 0.00 0.00 66 1012.9
20260506144229 17 155 4.8 16.1 0.00 0.00 0.00 66 1012.8
20260506144130 17 257 3.2 16.1 0.00 0.00 0.00 66 1012.9
20260506144030 17 254 4.8 16.1 0.00 0.00 0.00 66 1012.8
20260506143933 17 151 4.8 16.1 0.00 0.00 0.00 66 1012.8
20260506143829 17 250 4.8 16.1 0.00 0.00 0.00 66 1012.8
20260506143728 17 209 4.8 16.1 0.00 0.00 0.00 66 1012.8
20260506143702 17 157 4.8 16.1 0.00 0.00 0.00 66 1012.8
20260506143646 17 197 6.4 16.1 0.00 0.00 0.00 66 1012.8
20260506143326 17 139 6.4 16.1 0.00 0.00 0.00 65 1012.8
20260506143226 17 223 6.4 14.5 0.00 0.00 0.00 66 1012.8
20260506143124 17 214 6.4 14.5 0.00 0.00 0.00 65 1012.8
20260506143023 17 238 8.0 14.5 0.00 0.00 0.00 65 1012.8
20260506142923 17 179 8.0 14.5 0.00 0.00 0.00 65 1012.8
20260506142822 17 152 6.4 14.5 0.00 0.00 0.00 65 1012.8
20260506142722 17 202 4.8 14.5 0.00 0.00 0.00 65 1012.8
20260506142621 17 169 6.4 14.5 0.00 0.00 0.00 65 1012.8
20260506142521 17 186 4.8 14.5 0.00 0.00 0.00 65 1012.7
20260506142422 17 180 3.2 14.5 0.00 0.00 0.00 65 1012.7
20260506142319 17 153 3.2 11.3 0.00 0.00 0.00 65 1012.7
20260506142245 17 257 4.8 11.3 0.00 0.00 0.00 65 1012.7
20260506142220 17 250 6.4 11.3 0.00 0.00 0.00 65 1012.6
20260506142209 17 199 4.8 11.3 0.00 0.00 0.00 64 1012.6
20260506141858 17 209 6.4 11.3 0.00 0.00 0.00 65 1012.6
20260506141846 17 202 4.8 11.3 0.00 0.00 0.00 64 1012.7
20260506141514 17 249 3.2 11.3 0.00 0.00 0.00 65 1012.6
20260506141413 17 200 3.2 11.3 0.00 0.00 0.00 65 1012.6
20260506141317 17 192 3.2 11.3 0.00 0.00 0.00 65 1012.6
20260506141212 17 257 3.2 11.3 0.00 0.00 0.00 65 1012.6
20260506141111 17 258 4.8 11.3 0.00 0.00 0.00 65 1012.5
20260506141011 17 295 4.8 11.3 0.00 0.00 0.00 65 1012.5
20260506140910 17 274 3.2 11.3 0.00 0.00 0.00 65 1012.6
20260506140810 17 194 4.8 11.3 0.00 0.00 0.00 66 1012.5
20260506140709 17 217 4.8 11.3 0.00 0.00 0.00 66 1012.5
20260506140611 17 226 4.8 11.3 0.00 0.00 0.00 66 1012.5
20260506140507 17 198 3.2 11.3 0.00 0.00 0.00 66 1012.5
20260506140402 17 188 6.4 11.3 0.00 0.00 0.00 66 1012.5
20260506140301 17 239 6.4 11.3 0.00 0.00 0.00 66 1012.5
20260506140207 17 200 4.8 11.3 0.00 0.00 0.00 66 1012.5
20260506140137 17 223 4.8 11.3 0.00 0.00 0.00 66 1012.5
20260506140123 17 180 4.8 11.3 0.00 0.00 0.00 67 1012.4
20260506135829 17 234 3.2 11.3 0.00 0.00 0.00 67 1012.4
20260506135815 17 251 3.2 9.7 0.00 0.00 0.00 67 1012.5
20260506135753 17 241 1.6 9.7 0.00 0.00 0.00 67 1012.4
20260506135521 17 248 1.6 8.0 0.00 0.00 0.00 67 1012.4
20260506135243 17 48 1.6 8.0 0.00 0.00 0.00 67 1012.4
20260506135219 17 167 1.6 12.9 0.00 0.00 0.00 67 1012.4
20260506134900 17 188 1.6 12.9 0.00 0.00 0.00 68 1012.4
20260506134800 16 188 3.2 12.9 0.00 0.00 0.00 67 1012.3
20260506134719 16 199 3.2 12.9 0.00 0.00 0.00 67 1012.3
20260506134654 16 212 3.2 12.9 0.00 0.00 0.00 67 1012.4
20260506134642 16 207 4.8 12.9 0.00 0.00 0.00 67 1012.4
20260506134407 16 169 4.8 12.9 0.00 0.00 0.00 67 1012.3
20260506134355 16 189 3.2 11.3 0.00 0.00 0.00 67 1012.3
20260506134109 16 269 3.2 8.0 0.00 0.00 0.00 67 1012.3
20260506133829 16 246 3.2 8.0 0.00 0.00 0.00 67 1012.3
20260506133817 16 171 4.8 8.0 0.00 0.00 0.00 67 1012.3
20260506133446 16 182 3.2 8.0 0.00 0.00 0.00 66 1012.2
20260506133345 16 240 3.2 12.9 0.00 0.00 0.00 67 1012.2
20260506133244 16 202 3.2 12.9 0.00 0.00 0.00 66 1012.2
20260506133151 16 275 3.2 12.9 0.00 0.00 0.00 66 1012.2
20260506133113 16 185 1.6 12.9 0.00 0.00 0.00 66 1012.2
20260506133102 16 205 3.2 12.9 0.00 0.00 0.00 66 1012.2
20260506132742 16 208 1.6 12.9 0.00 0.00 0.00 66 1012.2
20260506132648 16 234 1.6 12.9 0.00 0.00 0.00 66 1012.2
20260506132541 16 179 3.2 12.9 0.00 0.00 0.00 66 1012.1
20260506132513 16 246 4.8 12.9 0.00 0.00 0.00 66 1012.1
20260506132459 16 270 3.2 9.7 0.00 0.00 0.00 66 1012.1
20260506132147 16 207 3.2 8.0 0.00 0.00 0.00 66 1012.1
20260506132036 16 215 3.2 8.0 0.00 0.00 0.00 66 1012.1
20260506132000 16 166 3.2 8.0 0.00 0.00 0.00 66 1012.1
20260506131948 16 238 3.2 8.0 0.00 0.00 0.00 66 1012.0
20260506131937 16 269 3.2 8.0 0.00 0.00 0.00 66 1012.0
20260506131606 16 234 3.2 8.0 0.00 0.00 0.00 66 1012.1
20260506131552 16 219 3.2 8.0 0.00 0.00 0.00 66 1012.0
20260506131257 16 124 1.6 8.0 0.00 0.00 0.00 66 1012.0
20260506131233 16 198 3.2 8.0 0.00 0.00 0.00 66 1012.0
20260506131224 16 156 3.2 8.0 0.00 0.00 0.00 66 1012.0
20260506131211 16 132 3.2 8.0 0.00 0.00 0.00 66 1012.0
20260506130629 16 158 1.6 8.0 0.00 0.00 0.00 66 1012.0
20260506130529 16 137 0.0 3.2 0.00 0.00 0.00 66 1011.9
20260506130450 16 135 0.0 4.8 0.00 0.00 0.00 66 1011.9
20260506130438 16 123 1.6 4.8 0.00 0.00 0.00 66 1011.9
20260506130425 16 223 1.6 4.8 0.00 0.00 0.00 66 1011.9
20260506130143 16 204 1.6 4.8 0.00 0.00 0.00 66 1011.9
20260506125817 16 46 0.0 4.8 0.00 0.00 0.00 66 1011.8
20260506125711 16 46 1.6 4.8 0.00 0.00 0.00 66 1011.9
20260506125610 16 112 1.6 6.4 0.00 0.00 0.00 65 1011.8
20260506125513 16 109 1.6 8.0 0.00 0.00 0.00 65 1011.8
20260506125439 16 275 1.6 8.0 0.00 0.00 0.00 65 1011.8
20260506125429 16 263 0.0 8.0 0.00 0.00 0.00 65 1011.8
20260506125108 16 184 0.0 8.0 0.00 0.00 0.00 65 1011.8
20260506125008 16 184 0.0 8.0 0.00 0.00 0.00 65 1011.8
20260506124911 16 184 3.2 8.0 0.00 0.00 0.00 65 1011.7
20260506124805 16 157 3.2 8.0 0.00 0.00 0.00 65 1011.7
20260506124704 16 198 3.2 8.0 0.00 0.00 0.00 65 1011.7
20260506124601 16 159 1.6 6.4 0.00 0.00 0.00 65 1011.7
20260506124505 16 205 0.0 6.4 0.00 0.00 0.00 65 1011.7
20260506124403 16 64 0.0 6.4 0.00 0.00 0.00 66 1011.7
20260506124305 16 249 1.6 6.4 0.00 0.00 0.00 66 1011.7
20260506124203 16 249 0.0 6.4 0.00 0.00 0.00 66 1011.7
20260506124104 16 211 1.6 6.4 0.00 0.00 0.00 66 1011.7
20260506124000 16 128 3.2 6.4 0.00 0.00 0.00 66 1011.7
20260506123906 16 232 3.2 6.4 0.00 0.00 0.00 66 1011.7
20260506123800 16 292 1.6 6.4 0.00 0.00 0.00 66 1011.7
20260506123705 16 171 1.6 6.4 0.00 0.00 0.00 66 1011.7
20260506123602 16 171 1.6 4.8 0.00 0.00 0.00 66 1011.7
20260506123502 16 128 0.0 4.8 0.00 0.00 0.00 66 1011.7
20260506123402 16 351 0.0 4.8 0.00 0.00 0.00 66 1011.7
20260506123302 16 297 1.6 8.0 0.00 0.00 0.00 66 1011.7
20260506123202 16 178 1.6 8.0 0.00 0.00 0.00 66 1011.7
20260506123102 16 115 1.6 8.0 0.00 0.00 0.00 66 1011.7
20260506123003 16 352 1.6 8.0 0.00 0.00 0.00 67 1011.7
20260506122901 16 0 1.6 8.0 0.00 0.00 0.00 67 1011.7
20260506122802 16 109 1.6 8.0 0.00 0.00 0.00 66 1011.6
20260506122702 16 38 1.6 8.0 0.00 0.00 0.00 66 1011.7
20260506122606 16 38 1.6 8.0 0.00 0.00 0.00 66 1011.6
20260506122552 16 186 1.6 8.0 0.00 0.00 0.00 66 1011.6
20260506122540 16 243 1.6 8.0 0.00 0.00 0.00 66 1011.5
20260506122530 16 207 1.6 8.0 0.00 0.00 0.00 66 1011.6
20260506122516 16 124 3.2 8.0 0.00 0.00 0.00 66 1011.5
20260506122231 17 258 4.8 8.0 0.00 0.00 0.00 66 1011.5
20260506122219 17 218 3.2 8.0 0.00 0.00 0.00 66 1011.4
20260506121948 17 199 3.2 9.7 0.00 0.00 0.00 66 1011.4
20260506121925 17 220 3.2 9.7 0.00 0.00 0.00 65 1011.3
20260506121914 17 200 3.2 16.1 0.00 0.00 0.00 65 1011.3
20260506121901 17 186 3.2 16.1 0.00 0.00 0.00 65 1011.3
20260506121820 17 167 3.2 16.1 0.00 0.00 0.00 65 1011.3
20260506121808 17 190 3.2 16.1 0.00 0.00 0.00 65 1011.2
20260506121306 17 170 3.2 16.1 0.00 0.00 0.00 65 1011.3
20260506121035 17 188 4.8 16.1 0.00 0.00 0.00 64 1011.2
20260506120530 17 172 3.2 9.7 0.00 0.00 0.00 65 1011.2
20260506120519 17 269 3.2 9.7 0.00 0.00 0.00 65 1011.2
20260506120234 17 234 3.2 9.7 0.00 0.00 0.00 65 1011.2
20260506120221 17 197 3.2 9.7 0.00 0.00 0.00 65 1011.1
20260506120209 17 191 3.2 8.0 0.00 0.00 0.00 65 1011.1
20260506115937 17 163 1.6 6.4 0.00 0.00 0.00 65 1011.1
20260506115654 17 224 3.2 6.4 0.00 0.00 0.00 65 1011.1
20260506115642 17 214 1.6 6.4 0.00 0.00 0.00 65 1011.0
20260506115105 17 234 3.2 6.4 0.00 0.00 0.00 66 1011.0
20260506115002 17 232 3.2 6.4 0.00 0.00 0.00 65 1011.0
20260506114903 17 233 1.6 8.0 0.00 0.00 0.00 66 1011.0
20260506114801 17 244 1.6 8.0 0.00 0.00 0.00 66 1011.0
20260506114730 17 240 1.6 8.0 0.00 0.00 0.00 66 1011.0
20260506114714 17 244 1.6 8.0 0.00 0.00 0.00 66 1011.0
20260506114649 17 180 1.6 8.0 0.00 0.00 0.00 66 1011.0
20260506114638 17 159 1.6 8.0 0.00 0.00 0.00 66 1011.0
20260506114629 17 188 1.6 9.7 0.00 0.00 0.00 66 1011.0
20260506114618 17 236 3.2 9.7 0.00 0.00 0.00 66 1011.0
20260506113802 17 223 0.0 14.5 0.00 0.00 0.00 67 1010.9
20260506113700 17 215 1.6 14.5 0.00 0.00 0.00 67 1010.9
20260506113610 17 239 4.8 14.5 0.00 0.00 0.00 68 1010.9
20260506113501 17 239 3.2 14.5 0.00 0.00 0.00 67 1010.9
20260506113401 17 268 3.2 14.5 0.00 0.00 0.00 68 1010.9
20260506113300 17 232 4.8 14.5 0.00 0.00 0.00 68 1010.8
20260506113207 17 208 3.2 14.5 0.00 0.00 0.00 68 1010.9
20260506113146 16 210 3.2 14.5 0.00 0.00 0.00 69 1010.9
20260506113124 16 236 4.8 14.5 0.00 0.00 0.00 69 1010.9
20260506112801 16 175 3.2 9.7 0.00 0.00 0.00 69 1010.9
20260506112701 16 227 3.2 11.3 0.00 0.00 0.00 69 1010.9
20260506112606 16 240 3.2 11.3 0.00 0.00 0.00 69 1010.9
20260506112505 16 270 3.2 11.3 0.00 0.00 0.00 69 1010.8
20260506112435 16 204 3.2 11.3 0.00 0.00 0.00 69 1010.9
20260506112424 16 206 1.6 11.3 0.00 0.00 0.00 69 1010.9
20260506112108 17 188 1.6 11.3 0.00 0.00 0.00 69 1010.9
20260506112001 16 165 1.6 11.3 0.00 0.00 0.00 69 1010.8
20260506111902 16 184 3.2 11.3 0.00 0.00 0.00 69 1010.9
20260506111814 17 183 3.2 11.3 0.00 0.00 0.00 69 1010.9
20260506111701 17 171 3.2 11.3 0.00 0.00 0.00 69 1010.8
20260506111606 17 246 3.2 11.3 0.00 0.00 0.00 69 1010.9
20260506111501 17 186 3.2 11.3 0.00 0.00 0.00 69 1010.8
20260506111430 17 215 4.8 12.9 0.00 0.00 0.00 69 1010.9
20260506111419 17 244 3.2 12.9 0.00 0.00 0.00 69 1010.9
20260506111406 17 150 3.2 12.9 0.00 0.00 0.00 69 1010.9
20260506111352 17 213 3.2 12.9 0.00 0.00 0.00 68 1010.8
20260506110803 17 238 4.8 12.9 0.00 0.00 0.00 68 1010.9
20260506110700 17 217 4.8 12.9 0.00 0.00 0.00 68 1010.9
20260506110603 17 186 3.2 12.9 0.00 0.00 0.00 68 1010.8
20260506110503 17 239 0.0 12.9 0.00 0.00 0.00 68 1010.9
20260506110403 17 200 1.6 12.9 0.00 0.00 0.00 68 1010.9
20260506110302 17 269 1.6 12.9 0.00 0.00 0.00 68 1010.9
20260506110203 17 266 3.2 12.9 0.00 0.00 0.00 68 1010.9
20260506110002 17 202 3.2 12.9 0.00 0.00 0.00 68 1010.8
20260506105900 17 185 3.2 12.9 0.00 0.00 0.00 68 1010.8
20260506105801 17 211 3.2 12.9 0.00 0.00 0.00 68 1010.8
20260506105701 17 232 3.2 12.9 0.00 0.00 0.00 68 1010.8
20260506105601 17 159 4.8 12.9 0.00 0.00 0.00 68 1010.8
20260506105503 17 227 3.2 12.9 0.00 0.00 0.00 68 1010.8
20260506105432 17 206 3.2 9.7 0.00 0.00 0.00 68 1010.8
20260506105421 17 251 3.2 9.7 0.00 0.00 0.00 68 1010.7
20260506105409 17 251 4.8 9.7 0.00 0.00 0.00 68 1010.7
20260506105122 17 251 3.2 9.7 0.00 0.00 0.00 68 1010.7
20260506104800 17 242 1.6 9.7 0.00 0.00 0.00 68 1010.7
20260506104703 17 227 1.6 8.0 0.00 0.00 0.00 68 1010.7
20260506104601 17 186 1.6 8.0 0.00 0.00 0.00 68 1010.7
20260506104504 17 184 3.2 11.3 0.00 0.00 0.00 68 1010.7
20260506104402 17 193 3.2 11.3 0.00 0.00 0.00 68 1010.6
20260506104302 17 229 3.2 11.3 0.00 0.00 0.00 68 1010.6
20260506104200 17 182 1.6 11.3 0.00 0.00 0.00 68 1010.6
20260506104059 17 198 1.6 11.3 0.00 0.00 0.00 68 1010.6
20260506103959 17 190 1.6 11.3 0.00 0.00 0.00 68 1010.6
20260506103858 17 209 1.6 11.3 0.00 0.00 0.00 68 1010.6
20260506103758 17 215 3.2 11.3 0.00 0.00 0.00 68 1010.6
20260506103658 17 214 3.2 11.3 0.00 0.00 0.00 68 1010.6
20260506103558 17 235 3.2 11.3 0.00 0.00 0.00 68 1010.6
20260506103456 17 296 3.2 9.7 0.00 0.00 0.00 68 1010.6
20260506103355 17 149 3.2 12.9 0.00 0.00 0.00 68 1010.5
20260506103331 17 229 1.6 12.9 0.00 0.00 0.00 68 1010.6
20260506103314 17 197 1.6 12.9 0.00 0.00 0.00 68 1010.6
20260506102953 17 207 4.8 12.9 0.00 0.00 0.00 68 1010.7
20260506102854 17 188 3.2 12.9 0.00 0.00 0.00 68 1010.6
20260506102746 17 185 1.6 12.9 0.00 0.00 0.00 68 1010.6
20260506102726 17 261 4.8 12.9 0.00 0.00 0.00 68 1010.6
20260506102714 17 166 4.8 12.9 0.00 0.00 0.00 68 1010.6
20260506102338 17 147 4.8 11.3 0.00 0.00 0.00 68 1010.6
20260506102236 17 214 3.2 11.3 0.00 0.00 0.00 68 1010.6
20260506102136 17 192 4.8 11.3 0.00 0.00 0.00 68 1010.6
20260506102053 17 219 6.4 11.3 0.00 0.00 0.00 68 1010.6
20260506102026 17 233 6.4 12.9 0.00 0.00 0.00 68 1010.6
20260506102015 17 241 4.8 12.9 0.00 0.00 0.00 68 1010.7
20260506101743 17 178 3.2 12.9 0.00 0.00 0.00 67 1010.6
20260506101731 17 161 3.2 12.9 0.00 0.00 0.00 67 1010.6
20260506101345 17 208 3.2 12.9 0.00 0.00 0.00 67 1010.7
20260506101335 17 250 4.8 12.9 0.00 0.00 0.00 67 1010.6
20260506101321 17 202 4.8 12.9 0.00 0.00 0.00 67 1010.6
20260506101308 17 182 3.2 12.9 0.00 0.00 0.00 67 1010.5
20260506101244 17 169 1.6 9.7 0.00 0.00 0.00 67 1010.5
20260506101014 17 194 4.8 9.7 0.00 0.00 0.00 67 1010.5
20260506100430 17 168 3.2 8.0 0.00 0.00 0.00 67 1010.6
20260506100406 17 194 3.2 8.0 0.00 0.00 0.00 67 1010.5
20260506100355 17 153 4.8 8.0 0.00 0.00 0.00 67 1010.6
20260506100116 17 161 3.2 8.0 0.00 0.00 0.00 67 1010.6
20260506100053 17 170 3.2 8.0 0.00 0.00 0.00 66 1010.5
20260506095729 17 163 1.6 6.4 0.00 0.00 0.00 66 1010.5
20260506095631 17 210 3.2 6.4 0.00 0.00 0.00 66 1010.6
20260506095535 17 154 3.2 6.4 0.00 0.00 0.00 66 1010.5
20260506095432 17 197 3.2 6.4 0.00 0.00 0.00 66 1010.5
20260506095329 17 185 3.2 6.4 0.00 0.00 0.00 66 1010.5
20260506095232 17 207 1.6 6.4 0.00 0.00 0.00 66 1010.5
20260506095128 17 171 1.6 6.4 0.00 0.00 0.00 66 1010.6
20260506095033 17 211 1.6 6.4 0.00 0.00 0.00 66 1010.5
20260506094928 17 221 1.6 6.4 0.00 0.00 0.00 66 1010.5
20260506094832 17 192 1.6 6.4 0.00 0.00 0.00 66 1010.5
20260506094809 17 217 1.6 4.8 0.00 0.00 0.00 66 1010.5
20260506094756 17 180 1.6 4.8 0.00 0.00 0.00 66 1010.5
20260506094744 17 167 1.6 4.8 0.00 0.00 0.00 66 1010.5
20260506094720 17 138 1.6 4.8 0.00 0.00 0.00 66 1010.5
20260506094453 18 256 1.6 4.8 0.00 0.00 0.00 66 1010.5
20260506094153 18 196 1.6 6.4 0.00 0.00 0.00 66 1010.5
20260506093821 18 198 1.6 8.0 0.00 0.00 0.00 66 1010.4
20260506093721 18 194 0.0 8.0 0.00 0.00 0.00 65 1010.4
20260506093622 18 213 0.0 8.0 0.00 0.00 0.00 65 1010.4
20260506093529 18 186 1.6 8.0 0.00 0.00 0.00 65 1010.4
20260506093411 18 172 3.2 8.0 0.00 0.00 0.00 65 1010.4
20260506093309 18 265 3.2 8.0 0.00 0.00 0.00 65 1010.4
20260506093211 18 188 3.2 8.0 0.00 0.00 0.00 65 1010.4
20260506093149 18 213 4.8 11.3 0.00 0.00 0.00 65 1010.4
20260506093126 18 218 6.4 11.3 0.00 0.00 0.00 65 1010.3
20260506092808 18 183 3.2 12.9 0.00 0.00 0.00 65 1010.4
20260506092705 18 180 3.2 12.9 0.00 0.00 0.00 64 1010.4
20260506092607 18 165 3.2 12.9 0.00 0.00 0.00 64 1010.4
20260506092503 18 222 1.6 12.9 0.00 0.00 0.00 64 1010.3
20260506092403 18 198 4.8 12.9 0.00 0.00 0.00 64 1010.4
20260506092305 18 175 4.8 12.9 0.00 0.00 0.00 64 1010.3
20260506092205 18 185 6.4 12.9 0.00 0.00 0.00 64 1010.3
20260506092101 18 165 6.4 12.9 0.00 0.00 0.00 64 1010.3
20260506092002 18 276 4.8 12.9 0.00 0.00 0.00 64 1010.3
20260506091937 18 192 3.2 12.9 0.00 0.00 0.00 64 1010.3
20260506091923 18 157 3.2 12.9 0.00 0.00 0.00 64 1010.3
20260506091648 18 260 4.8 12.9 0.00 0.00 0.00 63 1010.4
20260506091624 18 195 3.2 12.9 0.00 0.00 0.00 63 1010.3
20260506091311 18 185 4.8 20.9 0.00 0.00 0.00 63 1010.3
20260506091229 18 197 4.8 20.9 0.00 0.00 0.00 63 1010.3
20260506091213 18 186 4.8 20.9 0.00 0.00 0.00 62 1010.3
20260506091150 18 245 4.8 20.9 0.00 0.00 0.00 62 1010.3
20260506091136 18 205 4.8 20.9 0.00 0.00 0.00 62 1010.4
20260506090906 18 207 6.4 20.9 0.00 0.00 0.00 62 1010.4
20260506090854 18 210 9.7 20.9 0.00 0.00 0.00 62 1010.4
20260506090300 18 279 4.8 12.9 0.00 0.00 0.00 62 1010.4
20260506090205 18 242 4.8 12.9 0.00 0.00 0.00 62 1010.3
20260506090101 18 238 6.4 12.9 0.00 0.00 0.00 61 1010.3
20260506090004 18 234 4.8 12.9 0.00 0.00 0.00 61 1010.3
20260506085901 18 292 1.6 12.9 0.00 0.00 0.00 61 1010.3
20260506085802 18 273 1.6 6.4 0.00 0.00 0.00 61 1010.3
20260506085706 18 244 1.6 6.4 0.00 0.00 0.00 61 1010.3
20260506085648 18 284 3.2 6.4 0.00 0.00 0.00 61 1010.2
20260506085636 18 259 3.2 6.4 0.00 0.00 0.00 61 1010.2
20260506085306 18 244 3.2 6.4 0.00 0.00 0.00 61 1010.2
20260506085203 18 306 1.6 6.4 0.00 0.00 0.00 61 1010.2
20260506085101 18 298 1.6 8.0 0.00 0.00 0.00 61 1010.2
20260506085013 18 318 3.2 8.0 0.00 0.00 0.00 61 1010.2
20260506084901 18 340 1.6 8.0 0.00 0.00 0.00 61 1010.3
20260506084804 18 286 1.6 8.0 0.00 0.00 0.00 62 1010.2
20260506084701 18 296 1.6 8.0 0.00 0.00 0.00 62 1010.2
20260506084619 18 236 1.6 8.0 0.00 0.00 0.00 62 1010.2
20260506084602 18 195 0.0 8.0 0.00 0.00 0.00 62 1010.2
20260506084401 18 312 1.6 8.0 0.00 0.00 0.00 63 1010.2
20260506084308 18 181 3.2 8.0 0.00 0.00 0.00 63 1010.2
20260506084203 18 253 1.6 8.0 0.00 0.00 0.00 63 1010.2
20260506084101 18 159 0.0 6.4 0.00 0.00 0.00 63 1010.1
20260506084009 18 126 1.6 9.7 0.00 0.00 0.00 64 1010.1
20260506083901 17 150 1.6 9.7 0.00 0.00 0.00 64 1010.2
20260506083802 17 150 1.6 9.7 0.00 0.00 0.00 64 1010.2
20260506083701 17 121 1.6 9.7 0.00 0.00 0.00 65 1010.2
20260506083555 17 144 1.6 9.7 0.00 0.00 0.00 65 1010.1
20260506083454 17 142 0.0 9.7 0.00 0.00 0.00 65 1010.2
20260506083331 17 174 0.0 9.7 0.00 0.00 0.00 66 1010.2
20260506083230 17 174 1.6 9.7 0.00 0.00 0.00 66 1010.1
20260506083131 17 185 1.6 9.7 0.00 0.00 0.00 65 1010.1
20260506083110 17 238 1.6 6.4 0.00 0.00 0.00 66 1010.1
20260506083049 17 224 3.2 6.4 0.00 0.00 0.00 67 1010.1
20260506082730 17 152 3.2 6.4 0.00 0.00 0.00 67 1010.1
20260506082653 17 134 3.2 4.8 0.00 0.00 0.00 67 1010.1
20260506082642 17 165 1.6 6.4 0.00 0.00 0.00 66 1010.2
20260506082619 17 352 1.6 6.4 0.00 0.00 0.00 66 1010.2
20260506082349 17 268 0.0 8.0 0.00 0.00 0.00 66 1010.2
20260506082032 17 270 1.6 8.0 0.00 0.00 0.00 66 1010.1
20260506082001 17 67 3.2 8.0 0.00 0.00 0.00 67 1010.1
20260506081948 17 44 3.2 8.0 0.00 0.00 0.00 66 1009.9
20260506081627 17 194 3.2 8.0 0.00 0.00 0.00 67 1010.2
20260506081530 17 22 3.2 8.0 0.00 0.00 0.00 67 1010.1
20260506081421 18 16 3.2 6.4 0.00 0.00 0.00 67 1009.9
20260506081324 18 67 3.2 6.4 0.00 0.00 0.00 67 1010.1
20260506081308 18 23 1.6 4.8 0.00 0.00 0.00 66 1010.1
20260506081255 18 235 1.6 4.8 0.00 0.00 0.00 66 1010.1
20260506080935 18 237 1.6 4.8 0.00 0.00 0.00 65 1009.9
20260506080923 18 104 3.2 4.8 0.00 0.00 0.00 66 1009.9
20260506080603 18 296 0.0 4.8 0.00 0.00 0.00 66 1009.9
20260506080503 18 299 0.0 4.8 0.00 0.00 0.00 66 1009.9
20260506080402 18 301 0.0 4.8 0.00 0.00 0.00 65 1010.1
20260506080302 18 304 1.6 4.8 0.00 0.00 0.00 66 1010.1
20260506080208 18 300 1.6 4.8 0.00 0.00 0.00 65 1010.1
20260506080147 18 300 1.6 4.8 0.00 0.00 0.00 65 1009.9
20260506080137 18 31 1.6 4.8 0.00 0.00 0.00 65 1009.9
20260506073503 19 9 0.0 6.4 0.00 0.00 0.00 63 1009.8
20260506073403 19 9 1.6 8.0 0.00 0.00 0.00 63 1009.8
20260506073302 19 9 1.6 8.0 0.00 0.00 0.00 63 1009.8
20260506073203 19 9 1.6 8.0 0.00 0.00 0.00 63 1009.8
20260506073102 19 352 3.2 8.0 0.00 0.00 0.00 63 1009.8
20260506073003 19 352 1.6 9.7 0.00 0.00 0.00 63 1009.8
20260506072935 19 16 1.6 9.7 0.00 0.00 0.00 63 1009.7
20260506072923 19 34 3.2 9.7 0.00 0.00 0.00 63 1009.8
20260506072602 19 352 6.4 9.7 0.00 0.00 0.00 63 1009.8
20260506072502 19 5 3.2 9.7 0.00 0.00 0.00 63 1009.8
20260506072401 19 9 3.2 9.7 0.00 0.00 0.00 63 1009.7
20260506072305 19 295 6.4 12.9 0.00 0.00 0.00 64 1009.8
20260506072237 18 260 6.4 12.9 0.00 0.00 0.00 64 1009.8
20260506072225 18 349 3.2 12.9 0.00 0.00 0.00 63 1009.7
20260506071902 18 259 0.0 12.9 0.00 0.00 0.00 64 1009.9
20260506071803 18 352 0.0 12.9 0.00 0.00 0.00 65 1009.8
20260506071702 18 352 1.6 12.9 0.00 0.00 0.00 64 1009.8
20260506071602 18 352 1.6 12.9 0.00 0.00 0.00 64 1009.8
20260506071503 18 352 6.4 12.9 0.00 0.00 0.00 65 1009.8
20260506071402 18 0 4.8 12.9 0.00 0.00 0.00 64 1009.8
20260506071303 18 352 3.2 8.0 0.00 0.00 0.00 64 1009.8
20260506071204 18 312 1.6 4.8 0.00 0.00 0.00 63 1009.8
20260506071127 18 12 1.6 4.8 0.00 0.00 0.00 63 1009.8
20260506071114 18 5 1.6 4.8 0.00 0.00 0.00 63 1009.8
20260506071053 18 266 1.6 4.8 0.00 0.00 0.00 63 1009.8
20260506070703 18 297 1.6 4.8 0.00 0.00 0.00 63 1009.8
20260506070602 18 310 1.6 4.8 0.00 0.00 0.00 63 1009.7
20260506070504 18 27 1.6 4.8 0.00 0.00 0.00 64 1009.7
20260506070401 18 27 0.0 4.8 0.00 0.00 0.00 63 1009.7
20260506070302 18 15 0.0 3.2 0.00 0.00 0.00 63 1009.7
20260506070203 18 348 0.0 4.8 0.00 0.00 0.00 62 1009.7
20260506062204 20 92 0.0 0.0 0.00 0.00 0.00 56 1009.4
20260506062107 20 92 0.0 0.0 0.00 0.00 0.00 56 1009.4
20260506062001 20 92 0.0 0.0 0.00 0.00 0.00 57 1009.4
20260506061902 20 92 0.0 0.0 0.00 0.00 0.00 56 1009.4
20260506061801 20 92 0.0 0.0 0.00 0.00 0.00 56 1009.4
20260506061702 20 92 0.0 0.0 0.00 0.00 0.00 56 1009.4
20260506061604 20 92 0.0 0.0 0.00 0.00 0.00 55 1009.4
20260506061503 20 92 0.0 0.0 0.00 0.00 0.00 55 1009.4
20260506061414 20 92 0.0 0.0 0.00 0.00 0.00 55 1009.4
20260506061305 20 92 0.0 0.0 0.00 0.00 0.00 55 1009.4
20260506061203 20 92 0.0 0.0 0.00 0.00 0.00 55 1009.4
20260506061103 20 92 0.0 0.0 0.00 0.00 0.00 56 1009.4
20260506061007 20 92 0.0 0.0 0.00 0.00 0.00 55 1009.4
20260506060914 20 92 0.0 0.0 0.00 0.00 0.00 56 1009.4
20260506060801 20 92 0.0 0.0 0.00 0.00 0.00 55 1009.4
20260506060704 20 92 0.0 0.0 0.00 0.00 0.00 55 1009.4
20260506060600 20 92 0.0 0.0 0.00 0.00 0.00 56 1009.4
20260506060506 20 92 0.0 0.0 0.00 0.00 0.00 56 1009.4
20260506060446 21 92 0.0 0.0 0.00 0.00 0.00 54 1009.5
20260506060424 21 92 0.0 0.0 0.00 0.00 0.00 54 1009.4
20260506060413 21 92 0.0 0.0 0.00 0.00 0.00 55 1009.4
20260506060143 21 92 0.0 0.0 0.00 0.00 0.00 55 1009.4
20260506060132 21 92 0.0 0.0 0.00 0.00 0.00 53 1009.4
20260506051333 21 123 1.6 3.2 0.00 0.00 0.00 52 1009.1
20260506051234 21 137 1.6 3.2 0.00 0.00 0.00 51 1009.1
20260506051136 21 148 0.0 3.2 0.00 0.00 0.00 51 1009.2
20260506051033 21 205 0.0 1.6 0.00 0.00 0.00 51 1009.2
20260506050929 21 216 0.0 3.2 0.00 0.00 0.00 52 1009.2
20260506050831 21 221 0.0 3.2 0.00 0.00 0.00 52 1009.2
20260506050729 21 221 0.0 3.2 0.00 0.00 0.00 51 1009.2
20260506050633 21 120 0.0 3.2 0.00 0.00 0.00 52 1009.2
20260506050529 21 120 0.0 3.2 0.00 0.00 0.00 51 1009.2
20260506050429 21 120 0.0 3.2 0.00 0.00 0.00 52 1009.2
20260506050329 21 120 0.0 3.2 0.00 0.00 0.00 52 1009.2
20260506050312 21 120 0.0 3.2 0.00 0.00 0.00 52 1009.2
20260506050301 21 120 0.0 3.2 0.00 0.00 0.00 52 1009.2
20260506045129 21 176 0.0 0.0 0.00 0.00 0.00 52 1009.2
20260506045029 21 176 0.0 0.0 0.00 0.00 0.00 52 1009.1
20260506044929 21 176 0.0 0.0 0.00 0.00 0.00 51 1009.1
20260506044903 21 176 0.0 0.0 0.00 0.00 0.00 52 1009.1
20260506044848 21 176 0.0 0.0 0.00 0.00 0.00 52 1009.2
20260506044530 21 176 0.0 0.0 0.00 0.00 0.00 52 1009.1
20260506044429 21 176 0.0 0.0 0.00 0.00 0.00 51 1009.2
20260506044402 21 176 0.0 0.0 0.00 0.00 0.00 51 1009.2
20260506044350 21 176 0.0 0.0 0.00 0.00 0.00 51 1009.2
20260506044029 21 176 0.0 0.0 0.00 0.00 0.00 51 1009.1
20260506043931 21 176 0.0 0.0 0.00 0.00 0.00 51 1009.1
20260506043908 21 176 0.0 0.0 0.00 0.00 0.00 51 1009.1
20260506043729 22 176 0.0 0.0 0.00 0.00 0.00 51 1009.1
20260506043629 22 176 0.0 0.0 0.00 0.00 0.00 51 1009.1
20260506043530 22 176 0.0 0.0 0.00 0.00 0.00 51 1009.1
20260506043429 22 176 0.0 0.0 0.00 0.00 0.00 50 1009.1
20260506043338 22 176 0.0 0.0 0.00 0.00 0.00 50 1009.1
20260506043231 22 176 0.0 0.0 0.00 0.00 0.00 50 1009.1
20260506043130 22 176 0.0 0.0 0.00 0.00 0.00 50 1009.1
20260506043030 22 176 0.0 0.0 0.00 0.00 0.00 50 1009.0
20260506042930 22 176 0.0 0.0 0.00 0.00 0.00 49 1009.1
20260506042857 22 176 0.0 0.0 0.00 0.00 0.00 49 1009.0
20260506042830 22 176 0.0 0.0 0.00 0.00 0.00 49 1009.0
20260506042819 22 176 0.0 0.0 0.00 0.00 0.00 49 1009.1
20260506042808 22 176 0.0 0.0 0.00 0.00 0.00 49 1009.0
20260506042220 22 176 0.0 1.6 0.00 0.00 0.00 49 1009.0
20260506042120 22 176 0.0 1.6 0.00 0.00 0.00 48 1009.0
20260506042004 22 176 0.0 1.6 0.00 0.00 0.00 48 1009.0
20260506041905 22 176 0.0 1.6 0.00 0.00 0.00 48 1009.0
20260506041803 22 176 0.0 1.6 0.00 0.00 0.00 48 1009.0
20260506041735 22 176 0.0 1.6 0.00 0.00 0.00 48 1009.0
20260506041723 22 176 0.0 1.6 0.00 0.00 0.00 48 1009.0
20260506041406 22 176 0.0 1.6 0.00 0.00 0.00 48 1009.0
20260506041302 22 185 0.0 1.6 0.00 0.00 0.00 48 1009.0
20260506041204 22 174 0.0 1.6 0.00 0.00 0.00 48 1009.0
20260506041102 22 174 0.0 1.6 0.00 0.00 0.00 48 1009.0
20260506041003 23 174 0.0 1.6 0.00 0.00 0.00 48 1009.0
20260506040925 23 174 0.0 1.6 0.00 0.00 0.00 48 1009.0
20260506040859 23 174 0.0 1.6 0.00 0.00 0.00 47 1008.9
20260506040849 23 173 0.0 1.6 0.00 0.00 0.00 47 1009.0
20260506040501 23 170 0.0 1.6 0.00 0.00 0.00 47 1008.9
20260506040403 23 171 0.0 1.6 0.00 0.00 0.00 47 1008.9
20260506040302 23 168 0.0 1.6 0.00 0.00 0.00 47 1008.9
20260506040204 23 168 0.0 1.6 0.00 0.00 0.00 47 1008.9
20260506040101 23 167 0.0 1.6 0.00 0.00 0.00 47 1008.9
20260506040004 23 165 0.0 1.6 0.00 0.00 0.00 48 1008.9
20260506035902 23 165 0.0 1.6 0.00 0.00 0.00 47 1008.9
20260506035834 23 165 0.0 1.6 0.00 0.00 0.00 48 1008.9
20260506035822 23 165 0.0 1.6 0.00 0.00 0.00 48 1008.9
20260506035501 23 165 0.0 1.6 0.00 0.00 0.00 46 1008.8
20260506035404 23 177 0.0 1.6 0.00 0.00 0.00 46 1008.8
20260506035306 23 176 0.0 1.6 0.00 0.00 0.00 46 1008.8
20260506035204 23 176 0.0 1.6 0.00 0.00 0.00 46 1008.8
20260506035103 23 171 0.0 1.6 0.00 0.00 0.00 46 1008.8
20260506035003 23 158 0.0 1.6 0.00 0.00 0.00 46 1008.8
20260506034902 23 158 0.0 1.6 0.00 0.00 0.00 45 1008.7
20260506034804 23 158 0.0 1.6 0.00 0.00 0.00 45 1008.7
20260506034704 23 158 0.0 1.6 0.00 0.00 0.00 45 1008.8
20260506034603 23 174 0.0 1.6 0.00 0.00 0.00 46 1008.7
20260506034504 23 174 0.0 1.6 0.00 0.00 0.00 46 1008.7
20260506034402 24 174 0.0 1.6 0.00 0.00 0.00 46 1008.7
20260506034302 24 174 0.0 1.6 0.00 0.00 0.00 46 1008.8
20260506034203 24 174 0.0 1.6 0.00 0.00 0.00 46 1008.7
20260506034102 24 172 0.0 1.6 0.00 0.00 0.00 46 1008.7
20260506034004 24 172 0.0 1.6 0.00 0.00 0.00 47 1008.7
20260506033926 24 172 0.0 1.6 0.00 0.00 0.00 46 1008.7
20260506033902 24 171 0.0 1.6 0.00 0.00 0.00 47 1008.7
20260506033851 24 169 0.0 1.6 0.00 0.00 0.00 46 1008.7
20260506033501 25 168 0.0 1.6 0.00 0.00 0.00 46 1008.7
20260506033403 25 168 0.0 1.6 0.00 0.00 0.00 45 1008.7
20260506033334 25 167 0.0 1.6 0.00 0.00 0.00 46 1008.7
20260506033322 25 166 0.0 1.6 0.00 0.00 0.00 46 1008.7
20260506033040 25 166 0.0 1.6 0.00 0.00 0.00 46 1008.6
20260506033030 25 166 0.0 1.6 0.00 0.00 0.00 46 1008.6
20260506032702 25 166 0.0 1.6 0.00 0.00 0.00 46 1008.6
20260506032604 25 166 0.0 1.6 0.00 0.00 0.00 45 1008.6
20260506032527 25 166 0.0 3.2 0.00 0.00 0.00 45 1008.6
20260506032512 25 165 0.0 3.2 0.00 0.00 0.00 45 1008.6
20260506032501 25 165 0.0 3.2 0.00 0.00 0.00 45 1008.6
20260506032220 25 165 1.6 3.2 0.00 0.00 0.00 44 1008.5
20260506031950 25 161 1.6 4.8 0.00 0.00 0.00 42 1008.5
20260506031924 25 159 1.6 4.8 0.00 0.00 0.00 42 1008.5
20260506031914 25 159 1.6 4.8 0.00 0.00 0.00 42 1008.5
20260506031902 25 159 1.6 4.8 0.00 0.00 0.00 42 1008.5
20260506031850 25 155 1.6 4.8 0.00 0.00 0.00 42 1008.5
20260506031607 26 156 1.6 4.8 0.00 0.00 0.00 42 1008.5
20260506031553 26 153 1.6 4.8 0.00 0.00 0.00 42 1008.5
20260506031324 26 142 0.0 4.8 0.00 0.00 0.00 42 1008.5
20260506031042 26 140 0.0 4.8 0.00 0.00 0.00 42 1008.4
20260506031031 26 140 1.6 4.8 0.00 0.00 0.00 41 1008.5
20260506030304 26 130 3.2 8.0 0.00 0.00 0.00 41 1008.5
20260506030250 26 138 3.2 8.0 0.00 0.00 0.00 41 1008.4
20260506025930 26 141 1.6 8.0 0.00 0.00 0.00 40 1008.4
20260506025829 26 153 0.0 8.0 0.00 0.00 0.00 41 1008.5
20260506025726 26 160 0.0 8.0 0.00 0.00 0.00 41 1008.5
20260506025627 26 172 1.6 8.0 0.00 0.00 0.00 40 1008.4
20260506025521 26 175 1.6 8.0 0.00 0.00 0.00 41 1008.5
20260506025420 26 150 3.2 8.0 0.00 0.00 0.00 40 1008.5
20260506025356 26 163 3.2 8.0 0.00 0.00 0.00 40 1008.5
20260506025334 26 188 3.2 6.4 0.00 0.00 0.00 40 1008.5
20260506025012 26 179 3.2 6.4 0.00 0.00 0.00 40 1008.5
20260506024911 26 170 3.2 8.0 0.00 0.00 0.00 40 1008.5
20260506024811 26 147 3.2 8.0 0.00 0.00 0.00 40 1008.5
20260506024711 26 152 3.2 8.0 0.00 0.00 0.00 40 1008.5
20260506024613 27 145 3.2 8.0 0.00 0.00 0.00 39 1008.5
20260506024510 27 157 3.2 8.0 0.00 0.00 0.00 39 1008.5
20260506024411 27 167 3.2 8.0 0.00 0.00 0.00 39 1008.5
20260506024308 27 144 3.2 8.0 0.00 0.00 0.00 39 1008.5
20260506024206 27 145 3.2 8.0 0.00 0.00 0.00 39 1008.4
20260506024106 27 142 4.8 8.0 0.00 0.00 0.00 39 1008.5
20260506024006 27 105 4.8 8.0 0.00 0.00 0.00 38 1008.5
20260506023905 27 128 3.2 6.4 0.00 0.00 0.00 39 1008.4
20260506023804 27 133 3.2 4.8 0.00 0.00 0.00 38 1008.5
20260506023703 27 150 1.6 4.8 0.00 0.00 0.00 39 1008.5
20260506023602 27 87 3.2 4.8 0.00 0.00 0.00 39 1008.5
20260506023502 27 133 3.2 4.8 0.00 0.00 0.00 38 1008.5
20260506023412 27 124 3.2 4.8 0.00 0.00 0.00 38 1008.5
20260506023326 27 141 3.2 4.8 0.00 0.00 0.00 38 1008.5
20260506023303 27 153 1.6 4.8 0.00 0.00 0.00 38 1008.5
20260506023249 27 130 0.0 4.8 0.00 0.00 0.00 38 1008.5
20260506023236 27 150 0.0 4.8 0.00 0.00 0.00 38 1008.4
20260506022703 27 144 0.0 9.7 0.00 0.00 0.00 38 1008.5
20260506022605 27 140 1.6 9.7 0.00 0.00 0.00 38 1008.5
20260506022501 27 139 1.6 9.7 0.00 0.00 0.00 38 1008.5
20260506022403 27 142 1.6 9.7 0.00 0.00 0.00 38 1008.4
20260506022305 27 77 1.6 9.7 0.00 0.00 0.00 37 1008.5
20260506022203 27 150 1.6 9.7 0.00 0.00 0.00 38 1008.5
20260506022100 27 78 3.2 9.7 0.00 0.00 0.00 38 1008.4
20260506022003 27 86 3.2 9.7 0.00 0.00 0.00 37 1008.5
20260506021900 27 110 1.6 9.7 0.00 0.00 0.00 37 1008.4
20260506021804 27 107 3.2 9.7 0.00 0.00 0.00 37 1008.5
20260506021700 27 123 3.2 9.7 0.00 0.00 0.00 37 1008.5
20260506021603 27 95 3.2 9.7 0.00 0.00 0.00 37 1008.5
20260506021501 27 105 1.6 9.7 0.00 0.00 0.00 37 1008.5
20260506021430 27 141 3.2 9.7 0.00 0.00 0.00 37 1008.5
20260506021416 27 134 4.8 9.7 0.00 0.00 0.00 37 1008.4
20260506021355 27 157 4.8 9.7 0.00 0.00 0.00 37 1008.5
20260506021340 28 146 3.2 9.7 0.00 0.00 0.00 36 1008.4
20260506020802 28 116 4.8 9.7 0.00 0.00 0.00 36 1008.5
20260506020701 28 140 4.8 9.7 0.00 0.00 0.00 36 1008.4
20260506020604 28 153 4.8 9.7 0.00 0.00 0.00 36 1008.5
20260506020501 28 102 4.8 9.7 0.00 0.00 0.00 36 1008.5
20260506020431 28 149 4.8 9.7 0.00 0.00 0.00 36 1008.5
20260506020415 28 126 3.2 9.7 0.00 0.00 0.00 36 1008.4
20260506020353 28 120 4.8 9.7 0.00 0.00 0.00 36 1008.4
20260506020006 28 121 3.2 11.3 0.00 0.00 0.00 35 1008.5
20260506015900 28 140 3.2 11.3 0.00 0.00 0.00 36 1008.5
20260506015806 28 152 3.2 11.3 0.00 0.00 0.00 35 1008.4
20260506015702 28 150 3.2 11.3 0.00 0.00 0.00 35 1008.3
20260506015605 28 124 4.8 11.3 0.00 0.00 0.00 36 1008.4
20260506015505 28 125 3.2 11.3 0.00 0.00 0.00 36 1008.4
20260506015450 28 54 3.2 11.3 0.00 0.00 0.00 36 1008.4
20260506015438 28 137 3.2 11.3 0.00 0.00 0.00 35 1008.4
20260506015101 28 144 3.2 11.3 0.00 0.00 0.00 35 1008.4
20260506015004 28 136 6.4 11.3 0.00 0.00 0.00 35 1008.3
20260506014901 28 109 4.8 11.3 0.00 0.00 0.00 35 1008.3
20260506014804 28 131 3.2 11.3 0.00 0.00 0.00 35 1008.4
20260506014712 28 109 3.2 9.7 0.00 0.00 0.00 36 1008.3
20260506014659 28 127 3.2 9.7 0.00 0.00 0.00 35 1008.3
20260506014648 28 88 4.8 9.7 0.00 0.00 0.00 35 1008.3
20260506014637 28 102 3.2 9.7 0.00 0.00 0.00 35 1008.3
20260506014355 28 95 4.8 9.7 0.00 0.00 0.00 35 1008.3
20260506014339 28 104 3.2 11.3 0.00 0.00 0.00 34 1008.3
20260506013803 28 132 3.2 11.3 0.00 0.00 0.00 35 1008.3
20260506013701 28 143 3.2 11.3 0.00 0.00 0.00 34 1008.3
20260506013607 28 150 4.8 11.3 0.00 0.00 0.00 34 1008.3
20260506013501 28 188 4.8 11.3 0.00 0.00 0.00 34 1008.3
20260506013406 28 109 3.2 11.3 0.00 0.00 0.00 34 1008.4
20260506013302 29 104 3.2 11.3 0.00 0.00 0.00 33 1008.3
20260506013228 29 141 3.2 11.3 0.00 0.00 0.00 33 1008.3
20260506013101 29 130 3.2 8.0 0.00 0.00 0.00 32 1008.3
20260506013037 29 140 3.2 6.4 0.00 0.00 0.00 32 1008.3
20260506013025 29 146 1.6 6.4 0.00 0.00 0.00 32 1008.4
20260506012701 29 0 1.6 6.4 0.00 0.00 0.00 31 1008.4
20260506012604 29 18 3.2 6.4 0.00 0.00 0.00 29 1008.4
20260506012500 29 26 3.2 6.4 0.00 0.00 0.00 29 1008.3
20260506012404 29 34 3.2 6.4 0.00 0.00 0.00 29 1008.4
20260506012301 29 0 3.2 6.4 0.00 0.00 0.00 29 1008.4
20260506012204 29 9 3.2 6.4 0.00 0.00 0.00 30 1008.3
20260506012102 29 38 3.2 6.4 0.00 0.00 0.00 30 1008.3
20260506012005 29 62 1.6 6.4 0.00 0.00 0.00 29 1008.3
20260506011902 29 81 1.6 6.4 0.00 0.00 0.00 30 1008.3
20260506011807 29 5 3.2 6.4 0.00 0.00 0.00 30 1008.3
20260506011701 29 67 3.2 6.4 0.00 0.00 0.00 29 1008.3
20260506011639 29 19 3.2 8.0 0.00 0.00 0.00 29 1008.3
20260506011625 29 5 3.2 11.3 0.00 0.00 0.00 29 1008.3
20260506011301 29 18 3.2 11.3 0.00 0.00 0.00 30 1008.3
20260506011206 29 19 3.2 11.3 0.00 0.00 0.00 30 1008.3
20260506011132 29 333 3.2 11.3 0.00 0.00 0.00 30 1008.3
20260506011121 29 264 3.2 11.3 0.00 0.00 0.00 30 1008.3
20260506010804 29 242 3.2 11.3 0.00 0.00 0.00 30 1008.2
20260506010700 29 277 3.2 11.3 0.00 0.00 0.00 31 1008.2
20260506010637 29 303 3.2 11.3 0.00 0.00 0.00 30 1008.2
20260506010625 29 254 4.8 9.7 0.00 0.00 0.00 30 1008.1
20260506010301 29 343 4.8 9.7 0.00 0.00 0.00 30 1008.1
20260506010222 29 280 4.8 9.7 0.00 0.00 0.00 29 1008.1
20260506010135 29 299 4.8 9.7 0.00 0.00 0.00 30 1008.1
20260506010121 30 333 3.2 9.7 0.00 0.00 0.00 30 1008.2
20260506005803 30 271 3.2 4.8 0.00 0.00 0.00 30 1008.1
20260506005702 30 347 3.2 8.0 0.00 0.00 0.00 30 1008.1
20260506005605 30 277 3.2 9.7 0.00 0.00 0.00 30 1008.2
20260506005501 30 289 3.2 9.7 0.00 0.00 0.00 29 1008.1
20260506005403 29 240 1.6 9.7 0.00 0.00 0.00 30 1008.2
20260506005301 29 98 3.2 9.7 0.00 0.00 0.00 29 1008.2
20260506005205 29 257 1.6 9.7 0.00 0.00 0.00 29 1008.2
20260506005135 29 292 1.6 9.7 0.00 0.00 0.00 30 1008.2
20260506005125 29 298 3.2 9.7 0.00 0.00 0.00 30 1008.2
20260506004808 29 346 4.8 9.7 0.00 0.00 0.00 30 1008.2
20260506004701 30 320 3.2 9.7 0.00 0.00 0.00 30 1008.2
20260506004604 30 331 1.6 6.4 0.00 0.00 0.00 31 1008.2
20260506004533 30 282 1.6 6.4 0.00 0.00 0.00 31 1008.2
20260506004521 30 302 3.2 6.4 0.00 0.00 0.00 30 1008.2
20260506004210 30 32 3.2 6.4 0.00 0.00 0.00 31 1008.2
20260506004101 30 11 1.6 6.4 0.00 0.00 0.00 30 1008.2
20260506004002 30 0 1.6 6.4 0.00 0.00 0.00 30 1008.2
20260506003902 30 47 3.2 6.4 0.00 0.00 0.00 30 1008.2
20260506003801 30 88 3.2 6.4 0.00 0.00 0.00 30 1008.2
20260506003711 30 83 4.8 6.4 0.00 0.00 0.00 30 1008.2
20260506003603 30 24 3.2 6.4 0.00 0.00 0.00 30 1008.2
20260506003533 30 65 1.6 6.4 0.00 0.00 0.00 30 1008.2
20260506003522 30 333 0.0 4.8 0.00 0.00 0.00 30 1008.2
20260506003215 30 204 1.6 4.8 0.00 0.00 0.00 31 1008.2
20260506003101 30 250 0.0 4.8 0.00 0.00 0.00 30 1008.2
20260506003004 29 275 1.6 6.4 0.00 0.00 0.00 31 1008.2
20260506002948 29 320 1.6 6.4 0.00 0.00 0.00 30 1008.2
20260506002934 29 315 1.6 6.4 0.00 0.00 0.00 31 1008.2
20260506002922 29 19 3.2 6.4 0.00 0.00 0.00 30 1008.1
20260506002900 29 23 3.2 6.4 0.00 0.00 0.00 30 1008.2
20260506002848 29 20 3.2 6.4 0.00 0.00 0.00 30 1008.2
20260506002617 29 5 3.2 6.4 0.00 0.00 0.00 30 1008.2
20260506002332 29 308 1.6 6.4 0.00 0.00 0.00 30 1008.2
20260506002103 29 300 1.6 8.0 0.00 0.00 0.00 30 1008.3
20260506002050 29 294 1.6 8.0 0.00 0.00 0.00 30 1008.2
20260506001501 29 281 3.2 8.0 0.00 0.00 0.00 30 1008.3
20260506001359 29 282 3.2 9.7 0.00 0.00 0.00 30 1008.3
20260506001257 29 322 3.2 9.7 0.00 0.00 0.00 30 1008.3
20260506001211 29 297 4.8 9.7 0.00 0.00 0.00 31 1008.3
20260506001056 29 288 3.2 9.7 0.00 0.00 0.00 31 1008.3
20260506000956 29 333 3.2 9.7 0.00 0.00 0.00 31 1008.3
20260506000855 29 328 3.2 9.7 0.00 0.00 0.00 31 1008.3
20260506000837 29 284 3.2 9.7 0.00 0.00 0.00 32 1008.3
20260506000824 29 317 3.2 9.7 0.00 0.00 0.00 31 1008.3
20260506000451 29 254 3.2 9.7 0.00 0.00 0.00 30 1008.4
20260506000354 29 236 1.6 8.0 0.00 0.00 0.00 30 1008.4
20260506000254 29 298 1.6 4.8 0.00 0.00 0.00 31 1008.4
20260506000205 29 10 3.2 6.4 0.00 0.00 0.00 31 1008.4
20260506000147 29 30 3.2 6.4 0.00 0.00 0.00 31 1008.4
20260506000136 29 15 1.6 6.4 0.00 0.00 0.00 33 1008.5
20260505235748 29 87 1.6 6.4 0.00 0.00 0.00 31 1008.4
20260505235646 29 102 1.6 6.4 0.00 0.00 0.00 32 1008.5
20260505235625 29 352 3.2 6.4 0.00 0.00 0.00 32 1008.5
20260505235608 29 314 3.2 6.4 0.00 0.00 0.00 33 1008.5
20260505235243 29 98 4.8 6.4 0.00 0.00 0.00 31 1008.5
20260505235145 29 74 3.2 0.0 0.00 0.00 0.00 32 1008.5
20260505234302 29 332 4.8 14.5 0.00 0.00 0.00 32 1008.6
20260505234225 28 68 3.2 12.9 0.00 0.00 0.00 32 1008.6
20260505234211 28 59 3.2 12.9 0.00 0.00 0.00 32 1008.6
20260505234200 28 325 4.8 12.9 0.00 0.00 0.00 32 1008.7
20260505234133 28 305 4.8 12.9 0.00 0.00 0.00 31 1008.6
20260505234122 28 5 6.4 12.9 0.00 0.00 0.00 31 1008.6
20260505233849 28 5 3.2 9.7 0.00 0.00 0.00 31 1008.7
20260505233255 29 344 4.8 9.7 0.00 0.00 0.00 32 1008.7
20260505233156 29 19 6.4 9.7 0.00 0.00 0.00 32 1008.7
20260505233121 29 348 4.8 9.7 0.00 0.00 0.00 32 1008.7
20260505233037 29 316 4.8 9.7 0.00 0.00 0.00 32 1008.7
20260505233013 29 291 4.8 9.7 0.00 0.00 0.00 34 1008.7
20260505232715 29 271 3.2 12.9 0.00 0.00 0.00 33 1008.7
20260505232703 29 315 4.8 12.9 0.00 0.00 0.00 33 1008.7
20260505232651 29 5 4.8 12.9 0.00 0.00 0.00 32 1008.7
20260505232627 29 5 3.2 12.9 0.00 0.00 0.00 32 1008.7
20260505232046 29 277 4.8 12.9 0.00 0.00 0.00 34 1008.8
20260505232010 29 259 4.8 12.9 0.00 0.00 0.00 34 1008.7
20260505231946 28 9 3.2 12.9 0.00 0.00 0.00 35 1008.8
20260505231935 28 321 3.2 11.3 0.00 0.00 0.00 33 1008.7
20260505231700 28 317 4.8 11.3 0.00 0.00 0.00 34 1008.8
20260505231647 28 345 3.2 11.3 0.00 0.00 0.00 34 1008.8
20260505231621 28 327 3.2 11.3 0.00 0.00 0.00 34 1008.8
20260505231121 28 340 4.8 11.3 0.00 0.00 0.00 34 1008.9
20260505231110 28 11 4.8 11.3 0.00 0.00 0.00 33 1008.9
20260505230739 28 337 4.8 11.3 0.00 0.00 0.00 34 1008.9
20260505230638 28 352 3.2 11.3 0.00 0.00 0.00 34 1008.9
20260505230541 28 340 1.6 8.0 0.00 0.00 0.00 34 1008.9
20260505230524 28 53 3.2 6.4 0.00 0.00 0.00 34 1008.9
20260505230501 28 352 3.2 6.4 0.00 0.00 0.00 33 1008.9
20260505230135 28 242 1.6 14.5 0.00 0.00 0.00 33 1009.0
20260505230033 28 166 1.6 14.5 0.00 0.00 0.00 33 1009.0
20260505225930 28 340 3.2 14.5 0.00 0.00 0.00 35 1009.0
20260505225829 28 0 3.2 14.5 0.00 0.00 0.00 34 1009.1
20260505225730 28 285 3.2 14.5 0.00 0.00 0.00 34 1009.0
20260505225629 28 294 3.2 14.5 0.00 0.00 0.00 34 1009.1
20260505225530 28 53 4.8 14.5 0.00 0.00 0.00 35 1009.1
20260505225431 28 352 6.4 14.5 0.00 0.00 0.00 34 1009.1
20260505225336 28 5 6.4 14.5 0.00 0.00 0.00 34 1009.1
20260505225229 28 25 6.4 12.9 0.00 0.00 0.00 34 1009.1
20260505225133 28 281 6.4 12.9 0.00 0.00 0.00 33 1009.1
20260505225029 28 13 4.8 12.9 0.00 0.00 0.00 33 1009.1
20260505224931 28 10 3.2 11.3 0.00 0.00 0.00 34 1009.2
20260505224829 28 351 3.2 9.7 0.00 0.00 0.00 35 1009.1
20260505224732 28 96 3.2 9.7 0.00 0.00 0.00 35 1009.1
20260505224630 28 265 3.2 9.7 0.00 0.00 0.00 36 1009.1
20260505224614 28 348 4.8 9.7 0.00 0.00 0.00 35 1009.1
20260505224603 28 308 4.8 9.7 0.00 0.00 0.00 34 1009.1
20260505224226 28 245 4.8 9.7 0.00 0.00 0.00 34 1009.1
20260505224128 28 313 3.2 9.7 0.00 0.00 0.00 35 1009.2
20260505224025 28 290 1.6 9.7 0.00 0.00 0.00 34 1009.1
20260505223926 28 198 1.6 9.7 0.00 0.00 0.00 35 1009.2
20260505223823 28 250 3.2 9.7 0.00 0.00 0.00 35 1009.2
20260505223724 28 28 4.8 9.7 0.00 0.00 0.00 36 1009.3
20260505223655 28 342 4.8 9.7 0.00 0.00 0.00 35 1009.3
20260505223643 28 0 4.8 16.1 0.00 0.00 0.00 35 1009.3
20260505223322 28 352 3.2 16.1 0.00 0.00 0.00 34 1009.3
20260505223220 28 11 3.2 16.1 0.00 0.00 0.00 36 1009.3
20260505223146 28 24 3.2 16.1 0.00 0.00 0.00 37 1009.3
20260505223130 28 352 4.8 16.1 0.00 0.00 0.00 37 1009.3
20260505223119 28 24 3.2 16.1 0.00 0.00 0.00 36 1009.3
20260505222718 28 96 6.4 16.1 0.00 0.00 0.00 35 1009.3
20260505222616 28 54 4.8 16.1 0.00 0.00 0.00 36 1009.3
20260505222517 28 57 4.8 12.9 0.00 0.00 0.00 35 1009.4
20260505222415 28 273 6.4 12.9 0.00 0.00 0.00 35 1009.4
20260505222316 28 0 6.4 12.9 0.00 0.00 0.00 35 1009.4
20260505222241 28 11 6.4 12.9 0.00 0.00 0.00 35 1009.4
20260505222230 28 326 6.4 12.9 0.00 0.00 0.00 36 1009.4
20260505222217 28 352 4.8 11.3 0.00 0.00 0.00 36 1009.4
20260505221931 28 248 4.8 11.3 0.00 0.00 0.00 36 1009.4
20260505221647 28 274 4.8 12.9 0.00 0.00 0.00 37 1009.4
20260505221632 28 281 3.2 12.9 0.00 0.00 0.00 38 1009.5
20260505221325 28 315 3.2 12.9 0.00 0.00 0.00 38 1009.4
20260505221309 28 325 4.8 12.9 0.00 0.00 0.00 38 1009.5
20260505221258 27 281 6.4 12.9 0.00 0.00 0.00 37 1009.5
20260505221024 27 329 6.4 12.9 0.00 0.00 0.00 37 1009.5
20260505221000 27 268 6.4 12.9 0.00 0.00 0.00 37 1009.6
20260505220728 28 325 4.8 12.9 0.00 0.00 0.00 37 1009.5
20260505220401 28 5 6.4 12.9 0.00 0.00 0.00 37 1009.6
20260505220304 28 5 6.4 12.9 0.00 0.00 0.00 37 1009.6
20260505220201 28 275 4.8 9.7 0.00 0.00 0.00 37 1009.7
20260505220106 28 289 3.2 12.9 0.00 0.00 0.00 38 1009.6
20260505220027 28 348 4.8 12.9 0.00 0.00 0.00 38 1009.7
20260505220016 28 14 3.2 12.9 0.00 0.00 0.00 37 1009.7
20260505215952 28 96 1.6 12.9 0.00 0.00 0.00 37 1009.7
20260505215602 28 121 3.2 12.9 0.00 0.00 0.00 37 1009.6
20260505215502 27 237 3.2 12.9 0.00 0.00 0.00 37 1009.7
20260505215401 27 102 6.4 14.5 0.00 0.00 0.00 38 1009.7
20260505215306 28 24 6.4 14.5 0.00 0.00 0.00 37 1009.7
20260505215201 28 75 3.2 14.5 0.00 0.00 0.00 37 1009.7
20260505215105 28 88 4.8 14.5 0.00 0.00 0.00 37 1009.7
20260505215002 28 83 6.4 14.5 0.00 0.00 0.00 37 1009.8
20260505214903 28 323 6.4 14.5 0.00 0.00 0.00 38 1009.7
20260505214800 28 5 4.8 14.5 0.00 0.00 0.00 38 1009.7
20260505214704 28 13 6.4 14.5 0.00 0.00 0.00 39 1009.8
20260505214602 28 0 6.4 14.5 0.00 0.00 0.00 38 1009.7
20260505214506 28 340 3.2 14.5 0.00 0.00 0.00 39 1009.8
20260505214400 28 341 1.6 11.3 0.00 0.00 0.00 38 1009.7
20260505214305 28 348 3.2 11.3 0.00 0.00 0.00 39 1009.7
20260505214203 28 236 3.2 11.3 0.00 0.00 0.00 38 1009.7
20260505214139 28 34 4.8 11.3 0.00 0.00 0.00 40 1009.7
20260505214124 27 0 4.8 11.3 0.00 0.00 0.00 39 1009.7
20260505213801 27 302 6.4 11.3 0.00 0.00 0.00 39 1009.8
20260505213704 27 352 6.4 11.3 0.00 0.00 0.00 38 1009.8
20260505213602 27 327 6.4 11.3 0.00 0.00 0.00 38 1009.8
20260505213506 27 307 4.8 11.3 0.00 0.00 0.00 39 1009.8
20260505213445 27 313 4.8 11.3 0.00 0.00 0.00 39 1009.8
20260505213423 27 230 6.4 11.3 0.00 0.00 0.00 37 1009.8
20260505213104 27 273 3.2 11.3 0.00 0.00 0.00 39 1009.8
20260505213001 27 286 3.2 9.7 0.00 0.00 0.00 39 1009.9
20260505212923 27 5 1.6 9.7 0.00 0.00 0.00 40 1009.8
20260505212758 27 352 3.2 9.7 0.00 0.00 0.00 39 1009.8
20260505212657 27 244 6.4 9.7 0.00 0.00 0.00 38 1009.8
20260505212554 27 309 4.8 9.7 0.00 0.00 0.00 38 1009.9
20260505212455 27 340 4.8 9.7 0.00 0.00 0.00 39 1009.9
20260505212353 27 282 4.8 9.7 0.00 0.00 0.00 39 1009.8
20260505212254 27 295 4.8 9.7 0.00 0.00 0.00 39 1009.9
20260505212152 27 302 6.4 9.7 0.00 0.00 0.00 40 1009.9
20260505212052 27 5 4.8 9.7 0.00 0.00 0.00 39 1009.9
20260505211952 27 344 3.2 9.7 0.00 0.00 0.00 39 1009.9
20260505211851 27 317 3.2 9.7 0.00 0.00 0.00 40 1009.9
20260505211749 27 219 3.2 9.7 0.00 0.00 0.00 39 1009.9
20260505211649 27 15 4.8 12.9 0.00 0.00 0.00 39 1009.9
20260505211548 27 111 4.8 12.9 0.00 0.00 0.00 39 1009.9
20260505211531 27 36 4.8 12.9 0.00 0.00 0.00 41 1009.9
20260505211519 27 74 4.8 12.9 0.00 0.00 0.00 41 1009.9
20260505211217 27 5 1.6 12.9 0.00 0.00 0.00 40 1009.9
20260505211206 27 136 3.2 12.9 0.00 0.00 0.00 42 1009.9
20260505210845 27 35 6.4 12.9 0.00 0.00 0.00 40 1009.9
20260505210742 27 15 3.2 12.9 0.00 0.00 0.00 41 1009.9
20260505210644 27 287 3.2 12.9 0.00 0.00 0.00 44 1010.1
20260505210541 27 259 3.2 12.9 0.00 0.00 0.00 41 1010.1
20260505210442 27 253 3.2 12.9 0.00 0.00 0.00 42 1010.1
20260505210341 26 328 3.2 12.9 0.00 0.00 0.00 42 1010.1
20260505210248 26 279 4.8 16.1 0.00 0.00 0.00 42 1010.1
20260505210233 26 5 4.8 16.1 0.00 0.00 0.00 40 1010.1
20260505210222 27 26 4.8 16.1 0.00 0.00 0.00 40 1010.2
20260505210207 27 334 4.8 16.1 0.00 0.00 0.00 42 1010.2
20260505205925 26 107 3.2 16.1 0.00 0.00 0.00 42 1010.2
20260505205534 26 51 6.4 16.1 0.00 0.00 0.00 42 1010.3
20260505205435 26 301 8.0 16.1 0.00 0.00 0.00 41 1010.3
20260505205413 26 5 8.0 17.7 0.00 0.00 0.00 41 1010.3
20260505205350 26 5 6.4 17.7 0.00 0.00 0.00 42 1010.4
20260505205030 26 227 3.2 17.7 0.00 0.00 0.00 42 1010.4
20260505205012 26 258 3.2 17.7 0.00 0.00 0.00 42 1010.4
20260505205001 26 346 4.8 17.7 0.00 0.00 0.00 44 1010.5
20260505204632 26 267 8.0 17.7 0.00 0.00 0.00 43 1010.5
20260505204533 26 312 6.4 17.7 0.00 0.00 0.00 44 1010.5
20260505204433 26 327 3.2 17.7 0.00 0.00 0.00 43 1010.5
20260505204331 26 5 3.2 14.5 0.00 0.00 0.00 43 1010.5
20260505204230 26 246 6.4 14.5 0.00 0.00 0.00 43 1010.5
20260505204130 26 302 6.4 14.5 0.00 0.00 0.00 44 1010.6
20260505204030 26 346 4.8 14.5 0.00 0.00 0.00 43 1010.6
20260505203929 26 304 6.4 14.5 0.00 0.00 0.00 43 1010.5
20260505203829 26 349 8.0 14.5 0.00 0.00 0.00 43 1010.5
20260505203727 26 13 8.0 14.5 0.00 0.00 0.00 43 1010.6
20260505203653 26 333 6.4 14.5 0.00 0.00 0.00 43 1010.5
20260505203639 26 329 6.4 14.5 0.00 0.00 0.00 43 1010.6
20260505203628 26 332 6.4 14.5 0.00 0.00 0.00 43 1010.5
20260505203614 26 307 6.4 14.5 0.00 0.00 0.00 44 1010.6
20260505203023 26 31 6.4 14.5 0.00 0.00 0.00 44 1010.6
20260505202922 26 332 6.4 16.1 0.00 0.00 0.00 44 1010.6
20260505202847 26 303 8.0 16.1 0.00 0.00 0.00 43 1010.6
20260505202821 26 351 6.4 16.1 0.00 0.00 0.00 44 1010.6
20260505202810 26 42 6.4 16.1 0.00 0.00 0.00 43 1010.6
20260505202423 26 9 6.4 16.1 0.00 0.00 0.00 42 1010.7
20260505202402 26 311 6.4 16.1 0.00 0.00 0.00 44 1010.6
20260505202338 26 281 8.0 16.1 0.00 0.00 0.00 43 1010.7
20260505202048 26 352 9.7 16.1 0.00 0.00 0.00 43 1010.6
20260505202034 26 290 8.0 16.1 0.00 0.00 0.00 43 1010.6
20260505202023 26 253 4.8 14.5 0.00 0.00 0.00 44 1010.6
20260505201957 26 342 4.8 14.5 0.00 0.00 0.00 43 1010.6
20260505201946 26 330 3.2 14.5 0.00 0.00 0.00 44 1010.7
20260505201713 26 69 4.8 14.5 0.00 0.00 0.00 42 1010.6
20260505201701 26 56 6.4 14.5 0.00 0.00 0.00 42 1010.6
20260505201418 26 341 8.0 14.5 0.00 0.00 0.00 44 1010.6
20260505201147 26 352 4.8 12.9 0.00 0.00 0.00 45 1010.6
20260505200904 26 286 3.2 12.9 0.00 0.00 0.00 44 1010.6
20260505200631 26 348 4.8 14.5 0.00 0.00 0.00 45 1010.6
20260505200355 25 323 4.8 14.5 0.00 0.00 0.00 45 1010.6
20260505200332 25 296 4.8 14.5 0.00 0.00 0.00 44 1010.6
20260505200320 25 325 3.2 14.5 0.00 0.00 0.00 45 1010.6
20260505200049 25 326 4.8 14.5 0.00 0.00 0.00 44 1010.6